Weather Roundup
Issued by NWS Chicago, IL

Home | Current Version | Previous Version | Graphics & Text | Print | Product List | Glossary Off
Versions: 1 2 3 4 5 6 7 8 9 10 11 12 13 14 15 16 17 18 19 20 21 22 23 24 25 26 27 28 29 30 31 32 33 34 35 36 37 38 39 40 41 42 43 44 45 46 47 48 49 50

000
NZUS59 KLOT 210210
HRRLOT

CHICAGO AREA WEATHER ROUNDUP
NATIONAL WEATHER SERVICE CHICAGO/ROMEOVILLE IL
900 PM CDT SUN APR 20 2014

NOTE: "FAIR" INDICATES FEW OR NO CLOUDS BELOW 12,000 FEET WITH NO
SIGNIFICANT WEATHER AND/OR OBSTRUCTIONS TO VISIBILITY.

* THESE STATIONS ARE NOT UNDER NWS QUALITY CONTROL. THEY ALSO MAY NOT
  REPORT WEATHER SUCH AS PRECIPITATION OR FOG.

ILZ005-006-012>014-019>023-210300-
NORTHEAST ILLINOIS

CITY           SKY/WX    TMP DP  RH WIND       PRES   REMARKS
OHARE          MOCLDY    64  40  41 S9        30.04S
MIDWAY         MOCLDY    72  40  31 SE7       30.05S
AURORA         PTCLDY    62  42  47 SE6       30.04S
LANSING*       PTCLDY    65  37  35 SE6       30.06F
JOLIET*        PTCLDY    60  42  52 CALM      30.06S
WAUKEGAN       MOCLDY    60  37  42 SE12      30.02F
DUPAGE AIRPORT PTCLDY    63  42  46 SE6       30.03S
WHEELING       PTCLDY    62  41  46 SE5       30.04F
KANKAKEE*      PTCLDY    67  42  40 S8        30.07S
MORRIS*        PTCLDY    68  33  27 S7        30.04S
LEWIS AIRPORT* PTCLDY    64  39  40 SE8       30.04F
NORTHERLY IS     N/A     53  42  66 SE1         N/A
$$

WIZ051-052-058>065-066-070>072-210300-
SOUTHEAST WISCONSIN

CITY           SKY/WX    TMP DP  RH WIND       PRES   REMARKS
MILWAUKEE      MOCLDY    63  38  39 S9        30.01F
KENOSHA*       MOCLDY    59  40  49 S9        30.02F
RACINE*        MOCLDY    60  37  42 S15       30.03F
BURLINGTON     PTCLDY    60  42  51 SW3       30.01S
WAUKESHA       PTCLDY    63  41  45 SE9       30.01F
WEST BEND      CLOUDY    55  41  58 CALM      30.01R
$$

INZ001>003-010>013-019-020-210300-
NORTHWEST INDIANA

CITY           SKY/WX    TMP DP  RH WIND       PRES   REMARKS
GARY*          PTCLDY    70  37  30 S7        30.07
MICHIGAN CITY* NOT AVBL
RENSSELAER*    NOT AVBL
VALPARAISO     CLEAR     65  35  33 SE6       30.09S
$$

LMZ740>746-210300-
SOUTHERN LAKE MICHIGAN

STATION/POSITION TIME  SKY/WX   TEMP WIND        PRES    VSBY
                                AIR  DIR/SP/G
                 (UTC)          (F)  (DEG/KT/KT) (MB)    (MI)
HARRISON CRIB    0200            53  170/ 10/ 12   N/A
BURNHAM HARBOR   0200            53  150/  3       N/A
CALUMET HARBOR   0200            60   90/  4/  6 1018.5F
BURNS HARBOR     NOT AVBL
MICHIGAN CITY    0200            70  130/  8/  9   N/A
$$

ABBREVIATIONS USED IN REMARKS
   TC - TEMPERATURE IN CELSIUS
  WCI - WIND CHILL INDEX
   HX - HEAT INDEX
  VSB - VISIBILITY
$$


USA.gov is the U.S. government's official web portal to all federal, state and local government web resources and services.